Time,TemperatureF,DewpointF,PressureIn,WindDirection,WindDirectionDegrees,WindSpeedMPH,WindSpeedGustMPH,Humidity,HourlyPrecipIn,Conditions,Clouds,dailyrainin,SoftwareType,DateUTC
2014-02-14 00:04:00,29.1,28.6,29.66,WSW,247,5.8,-999.0,98,-99.99,,,0.00,Acu-Link.com,2014-02-14 05:04:00,
2014-02-14 00:19:00,30.9,30.4,29.66,West,270,8.9,-999.0,98,-99.99,,,0.00,Acu-Link.com,2014-02-14 05:19:00,
2014-02-14 00:34:00,31.5,31.0,29.66,SW,225,6.8,-999.0,98,-99.99,,,0.00,Acu-Link.com,2014-02-14 05:34:00,
2014-02-14 00:49:00,30.9,30.4,29.65,West,270,5.8,-999.0,98,-99.99,,,0.00,Acu-Link.com,2014-02-14 05:49:00,
2014-02-14 01:04:00,30.2,29.7,29.65,SSW,202,7.3,-999.0,98,-99.99,,,0.00,Acu-Link.com,2014-02-14 06:04:00,
2014-02-14 01:20:00,29.7,29.2,29.65,SW,225,3.2,-999.0,98,-99.99,,,0.00,Acu-Link.com,2014-02-14 06:20:00,
2014-02-14 01:35:00,29.3,28.8,29.66,SSW,202,3.7,-999.0,98,-99.99,,,0.00,Acu-Link.com,2014-02-14 06:35:00,
2014-02-14 01:50:00,28.9,28.4,29.67,SW,225,2.7,-999.0,98,-99.99,,,0.00,Acu-Link.com,2014-02-14 06:50:00,
2014-02-14 02:06:00,28.9,28.4,29.68,West,270,3.7,-999.0,98,-99.99,,,0.00,Acu-Link.com,2014-02-14 07:06:00,
2014-02-14 02:21:00,30.0,29.5,29.68,SSW,202,4.7,-999.0,98,-99.99,,,0.00,Acu-Link.com,2014-02-14 07:21:00,
2014-02-14 02:36:00,30.6,30.1,29.68,WNW,292,11.4,-999.0,98,-99.99,,,0.00,Acu-Link.com,2014-02-14 07:36:00,
2014-02-14 02:52:00,30.0,29.5,29.68,WNW,292,4.7,-999.0,98,-99.99,,,0.00,Acu-Link.com,2014-02-14 07:52:00,
2014-02-14 03:07:00,29.5,29.0,29.68,West,270,5.3,-999.0,98,-99.99,,,0.00,Acu-Link.com,2014-02-14 08:07:00,
2014-02-14 03:22:00,27.9,27.4,29.70,West,270,9.9,-999.0,98,-99.99,,,0.00,Acu-Link.com,2014-02-14 08:22:00,
2014-02-14 03:37:00,26.4,25.9,29.70,NE,45,13.0,-999.0,98,-99.99,,,0.00,Acu-Link.com,2014-02-14 08:37:00,
2014-02-14 03:52:00,25.3,24.8,29.71,NNW,337,8.9,-999.0,98,-99.99,,,0.00,Acu-Link.com,2014-02-14 08:52:00,
2014-02-14 04:07:00,24.1,23.1,29.71,WSW,247,6.3,-999.0,96,-99.99,,,0.00,Acu-Link.com,2014-02-14 09:07:00,
2014-02-14 04:22:00,22.8,22.1,29.71,West,270,5.3,-999.0,97,-99.99,,,0.00,Acu-Link.com,2014-02-14 09:22:00,
2014-02-14 04:38:00,21.7,21.2,29.71,West,270,3.7,-999.0,98,-99.99,,,0.00,Acu-Link.com,2014-02-14 09:38:00,
2014-02-14 04:53:00,21.0,20.5,29.71,WNW,292,6.3,-999.0,98,-99.99,,,0.00,Acu-Link.com,2014-02-14 09:53:00,
2014-02-14 05:08:00,20.5,20.0,29.73,West,270,2.7,-999.0,98,-99.99,,,0.00,Acu-Link.com,2014-02-14 10:08:00,
2014-02-14 05:23:00,19.6,19.1,29.71,West,270,2.2,-999.0,98,-99.99,,,0.00,Acu-Link.com,2014-02-14 10:23:00,
2014-02-14 05:39:00,18.9,18.4,29.71,WNW,292,2.2,-999.0,98,-99.99,,,0.00,Acu-Link.com,2014-02-14 10:39:00,
2014-02-14 05:54:00,18.0,17.5,29.70,West,270,1.1,-999.0,98,-99.99,,,0.00,Acu-Link.com,2014-02-14 10:54:00,
2014-02-14 06:09:00,16.5,16.0,29.71,West,270,0.0,-999.0,98,-99.99,,,0.00,Acu-Link.com,2014-02-14 11:09:00,
2014-02-14 06:25:00,17.1,16.6,29.73,WNW,292,2.7,-999.0,98,-99.99,,,0.00,Acu-Link.com,2014-02-14 11:25:00,
2014-02-14 06:40:00,17.1,16.6,29.72,West,270,5.3,-999.0,98,-99.99,,,0.00,Acu-Link.com,2014-02-14 11:40:00,
2014-02-14 06:56:00,17.1,16.6,29.75,West,270,5.8,-999.0,98,-99.99,,,0.00,Acu-Link.com,2014-02-14 11:56:00,
2014-02-14 07:11:00,16.5,16.0,29.75,WNW,292,2.7,-999.0,98,-99.99,,,0.00,Acu-Link.com,2014-02-14 12:11:00,
2014-02-14 07:26:00,16.3,15.8,29.73,NW,315,2.7,-999.0,98,-99.99,,,0.00,Acu-Link.com,2014-02-14 12:26:00,
2014-02-14 07:41:00,15.8,15.3,29.74,NW,315,0.0,-999.0,98,-99.99,,,0.00,Acu-Link.com,2014-02-14 12:41:00,
2014-02-14 07:57:00,16.7,16.2,29.75,West,270,2.7,-999.0,98,-99.99,,,0.00,Acu-Link.com,2014-02-14 12:57:00,
2014-02-14 08:12:00,17.2,16.7,29.74,NW,315,4.2,-999.0,98,-99.99,,,0.00,Acu-Link.com,2014-02-14 13:12:00,
2014-02-14 08:28:00,17.6,17.1,29.76,West,270,4.2,-999.0,98,-99.99,,,0.00,Acu-Link.com,2014-02-14 13:28:00,
2014-02-14 08:43:00,18.5,18.0,29.78,West,270,4.2,-999.0,98,-99.99,,,0.00,Acu-Link.com,2014-02-14 13:43:00,
2014-02-14 08:58:00,19.2,18.5,29.78,West,270,4.7,-999.0,97,-99.99,,,0.00,Acu-Link.com,2014-02-14 13:58:00,
2014-02-14 09:13:00,19.8,18.8,29.80,WNW,292,0.0,-999.0,96,-99.99,,,0.00,Acu-Link.com,2014-02-14 14:13:00,
2014-02-14 09:29:00,19.9,18.9,29.80,WNW,292,2.7,-999.0,96,-99.99,,,0.00,Acu-Link.com,2014-02-14 14:29:00,
2014-02-14 09:44:00,20.5,19.3,29.81,West,270,4.2,-999.0,95,-99.99,,,0.00,Acu-Link.com,2014-02-14 14:44:00,
2014-02-14 09:59:00,21.0,19.6,29.80,West,270,3.2,-999.0,94,-99.99,,,0.00,Acu-Link.com,2014-02-14 14:59:00,
2014-02-14 10:14:00,21.9,19.9,29.79,SW,225,2.7,-999.0,92,-99.99,,,0.00,Acu-Link.com,2014-02-14 15:14:00,
2014-02-14 10:30:00,22.6,20.6,29.78,WNW,292,2.7,-999.0,92,-99.99,,,0.00,Acu-Link.com,2014-02-14 15:30:00,
2014-02-14 10:45:00,21.7,20.0,29.78,SW,225,2.7,-999.0,93,-99.99,,,0.00,Acu-Link.com,2014-02-14 15:45:00,
2014-02-14 11:00:00,23.9,20.9,29.78,NNW,337,4.2,-999.0,88,-99.99,,,0.00,Acu-Link.com,2014-02-14 16:00:00,
2014-02-14 11:15:00,25.2,21.6,29.78,WNW,292,0.0,-999.0,86,-99.99,,,0.00,Acu-Link.com,2014-02-14 16:15:00,
2014-02-14 11:31:00,23.9,20.6,29.78,WNW,292,0.0,-999.0,87,-99.99,,,0.00,Acu-Link.com,2014-02-14 16:31:00,
2014-02-14 11:46:00,23.9,21.1,29.77,West,270,0.0,-999.0,89,-99.99,,,0.00,Acu-Link.com,2014-02-14 16:46:00,
2014-02-14 12:01:00,25.9,23.1,29.77,West,270,0.0,-999.0,89,-99.99,,,0.00,Acu-Link.com,2014-02-14 17:01:00,
2014-02-14 12:17:00,25.2,23.7,29.79,SSW,202,0.0,-999.0,94,-99.99,,,0.00,Acu-Link.com,2014-02-14 17:17:00,
2014-02-14 12:32:00,24.4,23.9,29.78,West,270,0.0,-999.0,98,-99.99,,,0.00,Acu-Link.com,2014-02-14 17:32:00,
2014-02-14 12:48:00,25.0,24.5,29.76,ENE,67,2.7,-999.0,98,-99.99,,,0.00,Acu-Link.com,2014-02-14 17:48:00,
2014-02-14 13:03:00,21.6,21.1,29.74,East,90,3.7,-999.0,98,-99.99,,,0.00,Acu-Link.com,2014-02-14 18:03:00,
2014-02-14 13:18:00,22.3,21.8,29.73,NE,45,2.2,-999.0,98,-99.99,,,0.00,Acu-Link.com,2014-02-14 18:18:00,
2014-02-14 13:33:00,22.5,22.0,29.71,SW,225,3.7,-999.0,98,-99.99,,,0.00,Acu-Link.com,2014-02-14 18:33:00,
2014-02-14 13:49:00,22.8,22.3,29.72,WSW,247,2.7,-999.0,98,-99.99,,,0.00,Acu-Link.com,2014-02-14 18:49:00,
2014-02-14 14:04:00,24.6,24.1,29.71,East,90,0.0,-999.0,98,-99.99,,,0.00,Acu-Link.com,2014-02-14 19:04:00,
2014-02-14 14:20:00,26.2,25.7,29.72,SSW,202,0.0,-999.0,98,-99.99,,,0.00,Acu-Link.com,2014-02-14 19:20:00,
2014-02-14 14:35:00,27.7,27.2,29.71,SSW,202,0.0,-999.0,98,-99.99,,,0.00,Acu-Link.com,2014-02-14 19:35:00,
2014-02-14 14:50:00,26.1,25.6,29.71,ENE,67,0.0,-999.0,98,-99.99,,,0.00,Acu-Link.com,2014-02-14 19:50:00,
2014-02-14 15:06:00,25.5,25.0,29.71,ENE,67,0.0,-999.0,98,-99.99,,,0.00,Acu-Link.com,2014-02-14 20:06:00,
2014-02-14 15:21:00,24.8,24.3,29.71,ENE,67,0.0,-999.0,98,-99.99,,,0.00,Acu-Link.com,2014-02-14 20:21:00,
2014-02-14 15:36:00,25.9,25.4,29.72,ENE,67,0.0,-999.0,98,-99.99,,,0.00,Acu-Link.com,2014-02-14 20:36:00,
2014-02-14 15:52:00,27.1,26.6,29.74,WNW,292,0.0,-999.0,98,-99.99,,,0.00,Acu-Link.com,2014-02-14 20:52:00,
2014-02-14 16:07:00,27.5,27.0,29.73,NNE,22,0.0,-999.0,98,-99.99,,,0.00,Acu-Link.com,2014-02-14 21:07:00,
2014-02-14 16:22:00,24.4,23.9,29.73,NNE,22,0.0,-999.0,98,-99.99,,,0.00,Acu-Link.com,2014-02-14 21:22:00,
2014-02-14 16:38:00,24.8,24.3,29.73,NNE,22,0.0,-999.0,98,-99.99,,,0.00,Acu-Link.com,2014-02-14 21:38:00,
2014-02-14 16:53:00,23.4,22.9,29.73,NW,315,0.0,-999.0,98,-99.99,,,0.00,Acu-Link.com,2014-02-14 21:53:00,
2014-02-14 17:08:00,21.9,21.4,29.74,WNW,292,0.0,-999.0,98,-99.99,,,0.00,Acu-Link.com,2014-02-14 22:08:00,
2014-02-14 17:23:00,21.9,21.4,29.75,NW,315,0.0,-999.0,98,-99.99,,,0.00,Acu-Link.com,2014-02-14 22:23:00,
2014-02-14 17:39:00,21.2,20.7,29.75,NNW,337,0.0,-999.0,98,-99.99,,,0.00,Acu-Link.com,2014-02-14 22:39:00,
2014-02-14 17:54:00,20.3,19.8,29.76,NNW,337,0.0,-999.0,98,-99.99,,,0.00,Acu-Link.com,2014-02-14 22:54:00,
2014-02-14 18:09:00,20.1,19.6,29.77,NW,315,6.3,-999.0,98,-99.99,,,0.00,Acu-Link.com,2014-02-14 23:09:00,
2014-02-14 18:24:00,19.8,19.3,29.77,NNE,22,1.7,-999.0,98,-99.99,,,0.00,Acu-Link.com,2014-02-14 23:24:00,
2014-02-14 18:39:00,19.6,19.1,29.77,North,0,3.7,-999.0,98,-99.99,,,0.00,Acu-Link.com,2014-02-14 23:39:00,
2014-02-14 18:54:00,19.6,19.1,29.78,NNW,337,4.2,-999.0,98,-99.99,,,0.00,Acu-Link.com,2014-02-14 23:54:00,
2014-02-14 19:10:00,19.4,18.9,29.79,NNW,337,5.3,-999.0,98,-99.99,,,0.00,Acu-Link.com,2014-02-15 00:10:00,
2014-02-14 19:27:00,19.0,18.5,29.79,WNW,292,4.7,-999.0,98,-99.99,,,0.00,Acu-Link.com,2014-02-15 00:27:00,
2014-02-14 19:43:00,18.9,18.4,29.81,NNW,337,5.8,-999.0,98,-99.99,,,0.00,Acu-Link.com,2014-02-15 00:43:00,
2014-02-14 19:58:00,18.7,18.2,29.81,NNW,337,5.8,-999.0,98,-99.99,,,0.00,Acu-Link.com,2014-02-15 00:58:00,
2014-02-14 20:13:00,18.7,18.2,29.82,NNW,337,10.9,-999.0,98,-99.99,,,0.00,Acu-Link.com,2014-02-15 01:13:00,
2014-02-14 20:28:00,17.6,17.1,29.83,NNW,337,7.3,-999.0,98,-99.99,,,0.00,Acu-Link.com,2014-02-15 01:28:00,
2014-02-14 20:44:00,17.1,16.6,29.83,NW,315,7.3,-999.0,98,-99.99,,,0.00,Acu-Link.com,2014-02-15 01:44:00,
2014-02-14 20:59:00,17.1,16.6,29.84,NW,315,9.4,-999.0,98,-99.99,,,0.00,Acu-Link.com,2014-02-15 01:59:00,
2014-02-14 21:14:00,17.1,16.6,29.84,North,0,7.8,-999.0,98,-99.99,,,0.00,Acu-Link.com,2014-02-15 02:14:00,
2014-02-14 21:30:00,16.3,15.8,29.84,NW,315,5.8,-999.0,98,-99.99,,,0.00,Acu-Link.com,2014-02-15 02:30:00,
2014-02-14 21:45:00,16.0,15.5,29.86,NW,315,5.8,-999.0,98,-99.99,,,0.00,Acu-Link.com,2014-02-15 02:45:00,
2014-02-14 22:00:00,16.0,15.5,29.86,WNW,292,6.8,-999.0,98,-99.99,,,0.00,Acu-Link.com,2014-02-15 03:00:00,
2014-02-14 22:16:00,16.2,15.7,29.87,West,270,5.8,-999.0,98,-99.99,,,0.00,Acu-Link.com,2014-02-15 03:16:00,
2014-02-14 22:31:00,16.2,15.7,29.88,NNW,337,5.3,-999.0,98,-99.99,,,0.00,Acu-Link.com,2014-02-15 03:31:00,
2014-02-14 22:46:00,16.2,15.7,29.88,NW,315,5.3,-999.0,98,-99.99,,,0.00,Acu-Link.com,2014-02-15 03:46:00,
2014-02-14 23:01:00,15.6,15.1,29.89,NW,315,7.8,-999.0,98,-99.99,,,0.00,Acu-Link.com,2014-02-15 04:01:00,
2014-02-14 23:16:00,15.6,15.1,29.89,NNW,337,5.8,-999.0,98,-99.99,,,0.00,Acu-Link.com,2014-02-15 04:16:00,
2014-02-14 23:32:00,16.0,15.5,29.90,WNW,292,6.3,-999.0,98,-99.99,,,0.00,Acu-Link.com,2014-02-15 04:32:00,
2014-02-14 23:47:00,16.0,15.5,29.91,WNW,292,5.8,-999.0,98,-99.99,,,0.00,Acu-Link.com,2014-02-15 04:47:00,